Location: Malcolm X Square
(37.7810°N, 122.4297°W)
Time: 22:21:50
(UTC+00:00)

Iridium 51 - Pass Details

Date: 13 April 2024
Orbit: 435 x 635 km, 86.4° (Epoch: 21 May)

Event Time Altitude Azimuth Distance (km) Brightness Sun altitude
Exits shadow 12:18:02 - 180° (S) 1,622 6.5 -15.5°
Reaches altitude 10° 12:18:08 10° 180° (S) 1,584 6.4 -15.5°
Maximum altitude 12:21:32 88° 95° (E) 449 3.8 -14.9°
Drops below altitude 10° 12:24:53 10° 3° (N) 1,552 7.0 -14.3°
Sets 12:26:55 0° 3° (N) 2,422 8.0 -13.9°
